Regional Weather Roundup
Issued by NWS Sioux Falls, SD

Home | Current Version | Previous Version | Text Only | Print | Product List | Glossary On
Versions: 1 2 3 4 5 6 7 8 9 10 11 12 13 14 15 16 17 18 19 20 21 22 23 24 25 26 27 28 29 30 31 32 33 34 35 36 37 38 39 40 41 42 43 44 45 46 47 48 49 50
000
ASUS43 KFSD 021102
RWRFSD

WEATHER ROUNDUP FOR SE SOUTH DAKOTA/SW MINNESOTA/NW IOWA
NATIONAL WEATHER SERVICE SIOUX FALLS SD
600 AM CDT THU OCT 02 2014

NOTE: "FAIR" INDICATES FEW OR NO CLOUDS BELOW 12,000 FEET WITH NO
SIGNIFICANT WEATHER AND OR OBSTRUCTIONS TO VISIBILITY.


SDZ038>040-050-052>070-021200-
SOUTHEAST SOUTH DAKOTA

CITY           SKY/WX    TMP DP  RH WIND       PRES   REMARKS
CHAMBERLAIN    CLOUDY    51  49  95 W7        29.93S
HURON          CLOUDY    50  48  93 NW6       29.89S
MADISON        PTSUNNY   50  50 100 NW7       29.88S
MITCHELL       LGT RAIN  53  51  93 CALM      29.90S
SIOUX FALLS    CLOUDY    54  50  86 NW6       29.86R
WINNER         PTSUNNY   52  49  89 W7        29.94F FOG
YANKTON        CLOUDY    54  50  87 W9        29.91R
$$

MNZ071-072-080-081-089-090-097-098-021200-
SOUTHWEST MINNESOTA

CITY           SKY/WX    TMP DP  RH WIND       PRES   REMARKS
FAIRMONT       CLOUDY    57  55  94 N7        29.81F
JACKSON        MOCLDY    54  52  94 VRB6      29.83S
LUVERNE        CLOUDY    55  46  71 N6        29.84F
MARSHALL       CLOUDY    50  45  81 NW9       29.84S
MONTEVIDEO     CLOUDY    48  46  93 N5        29.86S
PIPESTONE      CLOUDY    52  48  87 CALM      29.86R
REDWOOD FALLS  MOCLDY    50  49  96 CALM      29.84S
TRACY          MOCLDY    52  49  89 NW6       29.86R
WINDOM         PTCLDY    52  50  93 N9        29.84R
WORTHINGTON    MOCLDY    50  48  93 N8        29.84S
$$

IAZ001>003-012>014-020>022-031-032-NEZ013-014-SDZ071-021200-
NORTHWEST IOWA

CITY           SKY/WX    TMP DP  RH WIND       PRES   REMARKS
CHEROKEE       FOG       58  58 100 N3        29.80R VSB 1
DENISON        FOG       63  63 100 CALM      29.77S VSB<1/4
ESTHERVILLE    FOG       55  55 100 N6        29.82R VSB 1/4
LE MARS        CLOUDY    55  54  94 N5        29.82R
ORANGE CITY    CLOUDY    57  48  72 N8        29.81S
SHELDON        CLOUDY    57  50  77 N9        29.81S
SIOUX CITY     LGT RAIN  57  54  89 NW13G24   29.84R
SPENCER        CLOUDY    58  56  93 N9        29.80F
STORM LAKE     FOG       59  59 100 CALM      29.80R VSB<1/4
$$

ABBREVIATIONS USED IN REMARKS
   TC - TEMPERATURE IN CELSIUS
  WCI - WIND CHILL INDEX
   HX - HEAT INDEX
  VSB - VISIBILITY



USA.gov is the U.S. government's official web portal to all federal, state and local government web resources and services.